Content
SEND FEEDBACK

Daily
Averages
Monthly
Summary
United States of America

ST. LOUIS, MISSOURI


Home > North America > United States > Missouri
Elevation: 163 meters     Latitude: 38 45N     Longitude: 090 22W

WEATHER
 
SELECT A DAY
Number of Records: 196,446;   Date Range: 1/1/95 - 8/12/14
 
SHARE

PRINT THIS DATA

[ ← Previous Day ]
WEATHER ALMANAC - 7 FEBRUARY, 2013
[ Next Day → ]
[ °F ]   °C
Weather ElementAverageHighLow
Temperature6.6 °C9.4 °C (12:54 pm)0 °C (1:54 am)
Dewpoint3.6 °C7.2 °C (4:54 pm)-2.8 °C (1:54 am)
Humidity81.9 %93 % (4:10 pm)65 % (3:54 am)
Barometer1014.2 hPa1018.6 hPa (11:54 pm)1011.5 hPa (4:10 pm)
Wind Speed5.5 km/h24.1 km/h (9:54 pm)
Wind Gust37 km/h (9:54 pm)
Weather ElementAverage
Visibility12.1 km
Wind DirectionESE (108.7 °)

Weather ElementTotal
Precipitation3.81 mm
Heating Degree Days13.7 (Base 18.3)
Averaged from 30 records on 7 February, 2013
WEATHER CONDITIONS BREAKOUT
WIND DIRECTION BREAKOUT
WEATHER BY HOUR - 7 FEBRUARY, 2013
[ °F ]   °C
Local TimeTemperatureDewpointHumidityBarometerVisibilityWind DirectionWind SpeedGust SpeedPrecipitationEventsConditions
1:54 AM0 °C-2.8 °C82 %1017.3 hPa16.1 kmCalmScattered Clouds
2:54 AM2.2 °C-1.1 °C79 %1016.9 hPa16.1 kmCalmMostly Cloudy
3:54 AM4.4 °C-1.7 °C65 %1015.9 hPa16.1 kmEast (100°)5.6 km/hScattered Clouds
4:54 AM2.8 °C-1.1 °C76 %1015.9 hPa16.1 kmSSW (210°)5.6 km/hOvercast
5:54 AM3.9 °C-1.1 °C70 %1015.6 hPa16.1 kmEast (90°)7.4 km/hOvercast
6:54 AM3.9 °C0.6 °C79 %1015.2 hPa9.7 kmEast (80°)5.6 km/h0.25 mmRainLight Rain
7:54 AM4.4 °C0.6 °C77 %1014.9 hPa16.1 kmCalm0 mmOvercast
8:54 AM6.1 °C0.6 °C68 %1014.9 hPa16.1 kmCalmOvercast
9:54 AM6.7 °C2.2 °C73 %1014.6 hPa11.3 kmCalm0 mmRainLight Rain
10:54 AM7.2 °C3.3 °C76 %1014.6 hPa16.1 kmCalm0 mmOvercast
11:54 AM8.3 °C3.3 °C71 %1013.2 hPa16.1 kmCalmOvercast
12:54 PM9.4 °C4.4 °C71 %1012.2 hPa16.1 kmCalmOvercast
1:51 PM9 °C4 °C71 %1011.9 hPa12.9 kmWNW (300°)5.6 km/h0.25 mmRainLight Rain
1:54 PM8.9 °C4.4 °C74 %1012.5 hPa12.9 kmCalm0.25 mmRainLight Rain
2:54 PM8.3 °C6.1 °C86 %1012.2 hPa6.4 kmCalm1.52 mmRainRain
3:54 PM8.3 °C6.7 °C90 %1011.9 hPa11.3 kmCalm0.76 mmRainLight Rain
4:10 PM8 °C7 °C93 %1011.5 hPa6.4 kmCalm0 mmRainLight Rain
4:44 PM8 °C7 °C93 %1011.9 hPa6.4 kmCalm0.25 mmRainLight Rain
4:52 PM8 °C7 °C93 %1011.9 hPa6.4 kmCalm0.25 mmRainLight Rain
4:54 PM8.3 °C7.2 °C93 %1012.5 hPa6.4 kmCalm0.25 mmRainLight Rain
4:56 PM8 °C7 °C93 %1011.9 hPa4 kmCalm0 mmRainLight Rain
5:03 PM8 °C7 °C93 %1012.2 hPa4.8 kmCalm0 mmRainLight Rain
5:54 PM8.9 °C7.2 °C89 %1013.5 hPa4.8 kmWNW (300°)13 km/h0 mmOvercast
5:59 PM9 °C7 °C87 %1012.9 hPa12.9 kmWNW (290°)14.8 km/hOvercast
6:54 PM8.3 °C6.7 °C90 %1014.2 hPa16.1 kmWNW (300°)11.1 km/hOvercast
7:54 PM7.2 °C5 °C86 %1015.2 hPa16.1 kmNW (320°)22.2 km/h33.3 km/hOvercast
8:54 PM6.7 °C4.4 °C85 %1016.3 hPa16.1 kmNNW (330°)18.5 km/h35.2 km/hOvercast
9:54 PM5.6 °C3.3 °C85 %1016.9 hPa14.5 kmNW (320°)24.1 km/h37 km/hOvercast
10:54 PM5 °C2.2 °C82 %1017.6 hPa14.5 kmNW (310°)16.7 km/hOvercast
11:54 PM3.9 °C1.7 °C86 %1018.6 hPa8 kmNW (310°)14.8 km/hOvercast
Hourly data recorded from KSUS, located 0 kilometers away from St. Louis, Missouri







STORIES FROM OUR PARTNERS